Location: Buckland
(65.9785°N, 161.1281°W)
Time: 23:01:04
(UTC+00:00)

Transit 4A - Pass Details

Date: 03 December 2020
Orbit: 864 x 980 km, 66.8° (Epoch: 20 January)

Event Time Altitude Azimuth Distance (km) Brightness Sun altitude
Rises 20:36:51 0° 248° (WSW) 3,676 11.0 -1.0°
Reaches altitude 10° 20:39:24 10° 248° (WSW) 2,735 10.3 -0.9°
Maximum altitude 20:45:51 87° 160° (SSE) 992 8.2 -0.6°
Drops below altitude 10° 20:52:17 10° 73° (ENE) 2,729 10.5 -0.3°
Sets 20:54:50 0° 73° (ENE) 3,667 11.1 -0.2°
